Home > Time Zones > World Clock > Weather > Germany > Ulm > Past weeks

Flag for Germany Weather past 2 weeks in Ulm, Baden-Württemberg, Germany

Now
48 °F

Passing clouds.


Feels Like: 46 °F
Forecast: 50 / 71 °F
Wind: 5 mph from Southwest

Location: Laupheim Airport

Current Time: Jul 30, 2015 at 4:21:42 AM

Latest Report: Jul 30, 2015 at 3:20 AM


Visibility: N/A

Pressure: 30.01 "Hg

Humidity: 94%

Dew point: 46 °F

Location of UlmLocation

Historic Weather in Ulm — Graph

°F

Ulm temperature yesterday

Maximum temperature yesterday: 63 °F (at 10:20 AM)
Minimum temperature yesterday: 52 °F (at 11:20 PM)
Average temperature yesterday: 58 °F

Past Weeks' High & Low Weather Summary

 TemperatureHumidityPressure
High91 °F (Jul 17, 3:20 PM)100% (Jul 19, 5:01 AM)30.18 "Hg (Jul 19, 5:01 AM)
Low48 °F (Jul 26, 6:20 AM)29% (Jul 16, 5:20 PM)29.77 "Hg (Jul 24, 6:20 PM)
Average69 °F66%29.99 "Hg
* Reported Jul 15 2:20 AM — Jul 30 2:20 AM, Ulm, Weather by CustomWeather, © 2015

Note: Actual official high and low records may vary slightly from our data, if they occured in-between our weather recording intervals... More about our weather records

Advertising

Ulm weather history for previous 24 hours

 ConditionsComfort  
Time TempWeatherWind HumidityBarometerVisibility
2:20 AM
Thu, Jul 30
50 °FPassing clouds.5 mph88%30.01 "HgN/A
1:20 AM50 °FPassing clouds.5 mph88%30.01 "HgN/A
12:20 AM52 °FPassing clouds.5 mph82%30.01 "HgN/A
11:20 PM
Wed, Jul 29
52 °FPassing clouds.6 mph88%30.01 "HgN/A
10:20 PM54 °FPassing clouds.7 mph82%29.98 "HgN/A
9:20 PM57 °FPartly sunny.7 mph77%29.98 "HgN/A
8:20 PM59 °FPartly sunny.7 mph72%29.95 "HgN/A
7:20 PM59 °FPartly sunny.10 mph72%29.92 "HgN/A
6:20 PM59 °FBroken clouds.9 mph77%29.89 "HgN/A
5:20 PM63 °FBroken clouds.10 mph77%29.89 "HgN/A
4:20 PM61 °FLight rain. Broken clouds.13 mph94%29.86 "HgN/A
3:20 PM63 °FPartly sunny.14 mph77%29.86 "HgN/A
2:20 PM61 °FBroken clouds.9 mph83%29.86 "HgN/A
1:20 PM61 °FSprinkles. Broken clouds.13 mph83%29.86 "HgN/A
12:20 PM59 °FBroken clouds.8 mph88%29.86 "HgN/A
11:20 AM61 °FBroken clouds.13 mph72%29.86 "HgN/A
10:20 AM63 °FBroken clouds.8 mph73%29.86 "HgN/A
9:20 AM59 °FBroken clouds.8 mph77%29.86 "HgN/A
8:20 AM57 °FPartly sunny.7 mph88%29.89 "HgN/A
7:20 AM55 °FPartly sunny.5 mph94%29.89 "HgN/A
6:20 AM54 °FPassing clouds.3 mph94%29.92 "HgN/A
5:20 AM54 °FPassing clouds.3 mph94%29.92 "HgN/A
4:20 AM54 °FPassing clouds.5 mph94%29.92 "HgN/A
Weather by CustomWeather, © 2015

See weather overviewHow to use our weather pages